Zurück zum Katalog

STARLINK-38256

AktivKommunikationSSO
NORAD 100318·PAYLOAD·🇺🇸 United States

Gestartet Aug 12, 2026 von Vandenberg Space Force Base

Loading…

Nächste Überflüge (nächste 24 Stunden)

TLE

AktuellSource: Space-Track

Epoche: Sep 14, 2026, 19:59 UTC

1 A0318U 26184T   26257.83317284  .00011178  00000-0  34792-3 0  9997
2 A0318  97.2836 123.0610 0001895  86.9130 273.2330 15.33455662  6491

Verfolge STARLINK-38256 in Echtzeit mit AllMySat

Download on the App Store